Probability
31 32 31 28 23 18 15 14 14 13 9 8 12 16 17 17 18 18 19 18 16 14 12 11 9 8 8 7 6 5 4 4 4 1 0 1 2 3 3 2 1 2 3
34 34 34 33 28 23 19 19 20 17 14 14 15 15 16 18 20 20 20 19 17 16 15 13 11 10 9 8 7 5 3 3 3 1 0 1 2 3 3 3 2 2 2
36 35 36 36 33 28 25 24 24 22 20 18 17 17 17 19 21 22 23 22 20 19 19 17 14 12 11 10 9 6 4 5 4 2 1 1 3 3 3 3 3 1 1
34 34 35 34 32 30 28 27 26 24 22 21 19 19 19 19 19 21 22 21 20 20 21 20 17 13 13 13 11 9 7 6 5 4 3 3 3 3 3 4 3 2 1
33 32 31 30 30 28 27 27 28 27 25 25 24 22 21 20 19 19 20 19 17 17 19 19 18 15 14 14 12 10 8 6 5 5 4 4 4 4 5 5 4 4 4
31 30 28 27 26 24 22 22 25 26 27 29 30 28 26 23 20 18 19 18 17 16 16 16 15 14 13 12 11 9 8 6 5 5 5 5 6 7 6 6 6 6 6
29 28 27 25 22 20 19 19 20 23 26 30 32 32 29 25 20 16 15 15 15 15 14 13 12 12 11 10 9 9 8 6 5 5 5 4 5 6 6 6 7 7 7
26 27 27 24 21 20 20 20 19 21 24 27 28 28 26 22 16 11 9 10 11 12 12 11 11 12 10 8 8 8 7 5 3 3 3 3 3 4 4 5 6 7 7
24 24 23 21 20 21 20 20 20 21 24 23 22 21 19 16 12 7 6 7 8 8 8 8 9 9 7 5 6 6 5 4 2 1 1 1 2 1 1 3 4 5 5
22 21 19 17 17 18 19 19 20 21 21 20 17 16 14 12 9 5 4 8 9 8 7 7 6 4 2 2 3 4 3 2 1 0 0 0 0 0 0 1 1 2 3
20 19 18 17 16 16 17 18 19 19 17 15 15 14 12 11 8 4 3 7 10 10 9 8 5 2 0 1 2 2 2 1 1 0 0 0 0 0 0 0 0 0 1
19 19 18 17 15 15 16 16 17 16 15 14 14 14 13 12 8 4 2 4 7 9 9 7 5 2 0 0 1 1 1 0 0 0 0 0 0 0 0 0 0 0 0
18 17 16 14 14 16 17 16 15 15 14 14 14 14 13 12 8 4 1 1 2 4 4 3 2 1 0 0 0 0 0 0 0 0 0 0 0 0 1 1 1 0 0
15 14 13 12 13 15 16 14 13 13 13 13 14 13 11 10 7 4 3 2 1 1 1 1 1 0 0 0 0 0 0 0 0 0 0 0 0 0 1 2 2 1 1
11 11 11 11 11 11 11 11 10 10 9 10 11 10 8 8 6 4 3 3 2 2 2 2 1 1 1 0 0 0 0 0 0 0 0 0 0 0 1 1 2 2 2
9 8 8 8 8 8 8 8 7 6 5 4 4 5 4 4 3 2 1 1 1 2 2 2 3 2 2 1 1 0 0 0 0 0 0 0 0 0 0 0 1 1 1
7 7 6 6 6 7 8 8 6 4 2 1 1 1 1 1 1 0 0 0 0 0 1 2 3 3 3 3 2 1 1 0 0 0 0 1 1 0 0 0 0 0 0
7 7 7 6 7 8 9 9 7 4 2 1 0 0 0 0 0 0 0 0 0 0 1 3 3 3 3 3 3 3 2 1 1 0 1 2 2 1 1 0 0 0 0
9 8 7 6 7 8 8 6 5 3 2 1 0 0 0 0 0 0 0 0 0 1 2 3 3 3 3 3 3 3 3 3 2 1 1 2 3 3 2 1 1 0 0
9 8 6 6 6 6 5 3 1 1 1 1 1 0 0 0 0 1 2 1 1 1 2 3 3 3 3 3 3 3 4 4 3 2 1 2 3 3 3 3 2 1 0
6 4 4 5 5 3 2 0 0 0 1 2 1 0 0 0 1 2 3 3 2 1 1 2 2 2 2 2 2 3 3 3 4 3 3 3 4 4 3 3 2 1 1
2 1 1 2 2 1 0 0 0 0 1 2 1 0 0 0 1 2 2 3 3 2 1 1 1 1 1 1 1 1 1 2 2 3 3 4 4 4 3 2 1 1 0
1 0 0 0 0 0 0 0 0 0 1 1 1 0 0 0 0 1 1 1 2 2 1 0 0 0 0 0 0 0 0 0 1 2 3 3 4 4 3 2 1 0 0
0 1 1 1 0 0 0 0 0 0 0 1 1 1 1 0 0 0 0 0 1 1 0 0 0 0 0 0 0 1 1 0 0 2 3 3 3 3 3 2 1 0 0
1 2 2 2 1 0 0 0 0 0 0 0 1 1 1 1 1 0 0 0 0 0 0 0 0 0 0 0 0 1 1 0 0 1 3 3 3 3 1 1 0 0 0
3 3 3 3 2 1 0 0 0 0 0 0 0 1 1 2 2 1 0 0 0 0 0 0 0 0 0 0 0 1 1 0 0 1 2 3 3 2 1 0 0 0 0
Wind_Speed
7 7 6 6 6 5 5 5 5 4 4 4 4 4 4 5 4 4 4 4 4 4 4 4 4 3 2 2 2 2 3 3 4 3 2 2 2 2 2 2 2 3 3
7 6 6 5 5 5 6 6 5 5 5 5 4 4 5 4 4 4 5 4 5 5 5 4 4 3 3 3 2 3 3 3 3 4 3 2 3 3 2 3 2 2 3
5 5 5 5 6 6 6 6 5 5 4 4 4 4 4 5 4 4 5 5 5 5 5 5 5 4 4 3 3 3 2 2 2 3 3 2 2 2 1 2 2 2 3
5 5 5 5 5 6 6 5 5 5 4 4 4 4 5 5 5 4 4 4 4 4 4 4 4 4 5 4 3 3 3 2 2 2 2 2 2 2 1 2 2 2 2
5 5 5 4 3 3 4 4 4 5 5 5 5 4 4 4 4 4 4 4 4 3 3 4 4 5 6 5 3 3 3 2 2 2 3 2 2 1 2 2 3 2 2
5 5 4 4 4 3 3 3 3 4 4 4 5 5 4 4 4 4 4 3 3 3 3 2 3 3 4 4 5 5 5 4 4 3 3 4 4 4 3 3 2 2 2
4 3 3 3 3 4 4 3 3 3 3 4 4 5 4 4 4 4 4 3 3 3 3 3 3 2 2 2 3 3 4 5 6 5 5 5 5 4 3 3 3 3 4
3 2 3 4 4 3 3 3 3 2 3 3 4 4 3 3 4 4 4 3 2 3 3 3 3 3 2 3 2 2 2 3 4 4 4 5 4 4 5 5 5 3 2
2 2 3 3 3 3 3 3 2 2 2 3 3 3 3 3 4 4 4 2 2 2 2 3 3 3 3 2 2 2 2 3 4 3 3 4 5 4 3 2 2 2 2
2 2 3 3 3 3 3 3 2 2 3 2 2 3 4 3 3 3 4 2 2 1 1 2 3 3 2 2 2 2 3 4 2 3 3 3 3 3 3 4 4 3 2
1 1 1 2 3 3 2 2 2 2 2 2 2 2 2 3 3 4 5 3 3 2 2 2 2 2 2 2 3 3 5 3 2 2 2 2 2 1 2 2 3 3 3
1 1 1 1 1 1 1 1 2 2 3 2 2 1 1 2 2 3 4 5 4 3 3 2 2 3 3 3 3 4 4 2 1 1 1 1 1 2 2 2 2 2 3
1 1 1 0 0 1 2 2 1 2 2 2 2 2 2 1 2 2 3 4 4 3 2 2 3 3 2 2 3 2 2 1 1 1 1 2 2 2 1 1 1 1 1
1 1 0 0 0 0 1 2 2 2 2 2 2 3 2 2 2 1 2 2 2 1 1 1 1 2 1 2 2 1 1 1 2 2 2 1 1 1 1 0 0 0 1
1 1 1 1 2 1 1 1 2 2 2 4 4 4 4 3 4 5 3 3 3 2 2 1 1 1 1 1 1 1 1 0 1 1 1 0 1 0 1 1 0 0 1
1 1 1 1 1 1 1 0 2 1 0 1 2 3 3 4 4 5 5 4 4 5 3 1 1 1 1 1 1 1 1 1 1 1 1 1 1 1 1 1 0 1 2
3 2 1 1 2 2 2 2 1 1 3 1 0 2 2 3 3 4 4 4 4 5 2 1 1 1 1 1 1 1 1 1 1 1 1 1 0 0 1 1 1 1 2
2 2 2 2 2 2 2 2 2 2 1 1 1 1 1 2 2 3 4 4 2 2 1 2 1 1 1 1 1 1 1 0 0 1 1 1 1 1 1 1 2 2 2
1 1 1 1 1 1 1 1 1 2 2 1 0 1 1 1 1 2 4 3 2 1 1 1 2 2 2 2 1 1 1 1 1 1 1 2 2 1 2 2 2 3 3
1 2 2 1 1 1 1 1 1 1 1 1 1 0 1 2 2 1 1 1 1 1 1 1 1 1 2 2 2 2 1 1 2 2 2 2 2 2 3 3 3 3 3
1 1 2 1 1 2 1 1 2 1 1 1 1 1 3 2 1 1 1 1 2 2 2 2 2 2 2 2 2 2 2 2 2 2 3 3 3 3 3 3 3 3 3
1 1 1 1 2 2 2 1 2 2 2 2 1 1 3 2 1 1 1 1 1 1 1 1 1 1 1 1 2 2 2 2 2 2 2 2 2 3 3 3 3 3 3
1 2 1 1 2 3 2 2 2 2 2 2 2 1 2 1 1 1 1 1 1 1 1 1 1 0 0 0 1 2 2 3 3 3 2 2 2 2 2 3 4 4 4
2 2 2 2 2 2 2 2 2 2 2 2 2 1 1 1 1 1 1 1 1 1 1 1 1 1 0 0 0 0 1 2 1 2 2 2 2 2 2 3 3 3 3
1 1 1 1 2 2 2 2 2 2 2 2 1 1 1 1 1 1 1 1 1 1 1 1 1 1 1 1 0 1 1 1 1 1 1 1 1 2 2 3 2 2 2
1 1 1 1 2 2 2 2 2 2 2 2 2 2 2 2 1 1 1 1 1 1 1 1 1 2 2 1 2 1 1 1 1 1 0 1 1 2 2 2 2 2 2
Wind_Direction
195 194 196 196 199 196 197 200 199 202 202 207 204 203 209 211 207 203 208 200 206 220 222 213 222 217 214 217 207 202 205 190 226 259 246 246 244 253 270 263 257 244 236
192 191 198 196 192 199 209 209 201 202 206 208 207 204 208 212 208 204 212 210 208 220 223 214 222 216 213 223 215 219 221 210 209 244 259 247 237 230 231 245 255 249 243
176 185 194 196 197 206 212 212 208 207 207 204 199 202 207 208 209 213 211 214 213 218 216 213 220 212 220 225 224 231 235 234 211 219 251 252 251 239 245 266 258 263 259
171 177 189 200 207 211 212 210 211 207 202 202 202 205 209 210 210 215 216 220 219 217 216 216 220 211 214 217 223 229 224 218 211 220 244 252 257 254 209 238 265 261 259
175 184 195 199 203 217 213 211 208 204 203 196 194 200 204 203 213 208 210 214 211 215 219 218 217 210 209 211 213 219 210 210 214 220 236 250 253 238 228 221 232 250 256
179 192 195 189 190 204 216 213 209 206 203 194 194 197 201 211 209 198 194 198 195 199 212 220 221 225 221 223 223 220 208 211 219 224 236 239 247 239 233 223 214 221 257
174 184 181 175 186 198 200 188 203 206 199 196 201 198 200 207 199 195 187 187 190 202 210 215 227 233 223 227 238 248 246 239 225 219 229 237 237 229 218 228 220 215 234
161 177 191 189 193 202 196 198 205 200 199 197 203 200 197 208 202 198 190 187 193 207 211 208 206 223 224 217 229 262 278 275 257 234 227 238 239 229 214 218 218 226 255
168 184 205 206 197 199 204 213 211 190 207 208 194 195 196 211 202 192 183 176 189 222 224 206 193 207 233 206 185 237 280 287 291 280 258 255 257 249 222 190 194 201 256
226 208 204 206 197 202 208 208 205 190 205 197 189 200 195 212 214 194 177 172 186 234 258 241 211 209 225 209 197 213 251 267 289 315 317 307 275 257 231 200 194 202 228
227 190 189 197 202 204 203 193 175 176 173 179 186 216 218 221 226 202 183 180 194 206 227 248 250 232 229 239 222 223 240 249 268 274 290 304 308 286 262 237 208 196 212
164 156 162 178 204 189 171 181 164 169 174 183 182 205 237 238 220 216 196 192 189 190 215 227 235 232 247 260 254 252 250 246 222 252 284 289 289 283 271 256 245 238 225
149 178 233 271 199 180 165 164 165 176 187 195 189 204 222 222 222 221 206 201 199 191 211 231 240 249 272 275 271 256 223 189 175 200 243 257 259 263 286 312 303 286 298
179 199 194 146 117 181 159 154 163 189 206 201 197 208 211 216 225 228 219 200 187 177 194 285 279 272 286 275 276 263 233 199 190 207 229 257 303 350 334 290 271 310 319
185 194 194 189 178 157 141 160 172 181 197 196 201 200 196 211 227 214 194 192 189 185 144 82 39 17 351 336 325 307 293 232 210 216 213 260 304 311 297 315 20 304 254
190 202 203 188 174 164 163 71 50 90 6 237 208 198 211 210 200 200 203 188 174 161 137 141 184 218 226 241 255 286 276 234 224 205 203 212 243 257 280 313 323 239 261
205 207 203 190 180 182 184 183 192 16 31 14 259 207 202 188 186 184 175 158 153 147 133 161 192 221 239 233 196 192 214 234 193 168 173 197 216 247 257 271 271 273 268
201 208 203 201 192 185 193 200 175 166 206 309 340 320 230 205 200 183 151 119 100 123 158 176 189 189 202 212 194 192 204 223 210 190 195 220 229 244 264 272 268 259 263
173 200 194 181 177 179 179 156 161 170 171 186 38 1 299 177 125 124 131 127 150 167 179 185 191 186 196 204 202 197 191 198 223 224 233 244 240 235 253 262 264 273 268
169 178 176 162 159 159 162 164 178 172 156 143 141 155 54 78 81 95 130 141 156 168 183 195 200 203 206 206 209 213 210 212 225 237 244 247 248 242 248 257 261 265 262
153 159 167 158 161 174 175 161 146 138 151 144 146 147 138 127 141 148 155 169 184 194 197 200 201 204 208 206 209 214 215 227 228 230 238 245 245 246 250 252 254 254 256
126 144 143 148 143 139 141 136 128 127 134 135 138 115 134 117 120 133 164 190 184 188 191 181 188 204 211 209 197 204 221 236 248 248 249 250 250 250 253 255 258 258 260
107 111 108 115 120 121 119 121 120 118 129 144 148 127 125 138 142 140 149 147 115 95 93 125 150 209 263 237 211 196 214 234 237 232 233 250 261 263 260 258 259 263 262
122 129 133 131 123 121 124 125 121 127 135 130 128 129 132 138 124 116 122 111 99 89 83 102 141 176 178 140 254 230 237 247 234 220 207 221 258 274 275 276 271 259 256
101 117 129 131 125 119 116 119 124 122 121 118 124 126 112 112 111 101 90 86 95 92 73 54 45 39 28 30 357 270 278 269 255 241 211 201 242 270 281 286 286 280 271
77 90 105 123 128 125 127 129 128 129 128 124 119 115 120 124 120 117 112 96 92 90 76 65 52 53 34 19 353 337 327 308 291 281 214 216 260 282 296 295 295 299 295